User: anonymous   Login
Location: NJAA Observatory
(40.6819°N, 74.8979°W)
Time: 05:20:42
(UTC-04:00)
Language:

ATLAS CENTAUR R/B - Orbit

View from above orbital plane
View from above orbital plane
View from above satellite
View from above satellite

Ground track
Ground track

The orbit data is extracted from the following two-line orbital elements,

1 28385U 04034B   18166.15556938 0.00048000  00000-0  49029-3 0    03
2 28385  57.2950 129.1524 3381502 348.9273  11.0726  8.75256659    08
Epoch (UTC): 15 June 2018 03:44:01
Eccentricity: 0.3381502
inclination: 57.2950°
perigee height: 204 km
apogee height: 6931 km
right ascension of ascending node: 129.1524°
argument of perigee: 348.9273°
revolutions per day: 8.75256659
mean anomaly at epoch: 11.0726°
orbit number at epoch: 0

The dashed part of the orbit path shows where the satellite is in the earth's shadow,  

DLR